COSMOS 2251 DEB, 35060

Orbit data source: Space-Track

COSMOS 2251 DEB, 35060 is space debris in LEO originally from a launch on Wed, 16 Jun 1993 UTC launched from the Plesetsk Missile And Space Complex (PKMTR). The debris from Iridium 33, an American commercial communications satellite, has been tracked extensively since its accidental collision with the defunct Russian satellite Cosmos 2251 in 2009. This event, occurring at high speed in low Earth orbit (LEO), generated thousands of pieces of space debris, significantly increasing the risk of further collisions. The Iridium 33 debris cloud has impacted space traffic management and orbital debris mitigation strategies, making it a subject of ongoing study in space situational awareness.

Loading next visibility...
Identifier
35060, 1993-036AHP
Orbit
LEO
Country
Flag of CISCIS
Related business
Manufacturer
Unknown
Mission
Spacecraft
Bus & Motor
Unknown
Mass
Unknown
Launch date (UTC)
1993-06-16 (33 years ago)
Launch vehicle
Unknown
Launch site
Plesetsk Missile And Space Complex (PKMTR)
Object type
Payload
Rocket body
Debris
Shape & HBR
Unknown shape, 0.1 m
Radar Cross Section
Small (<0.1 m²)

Expand to show TLE details & history
Last TLE update: 7 hours ago

TLE from 7 hours ago
0 COSMOS 2251 DEB
1 35060U 93036AHP 26238.04900216  .00000567  00000-0  18024-3 0  9994
2 35060  74.0359 129.3331 0018388 158.5993 201.5936 14.42072843909362
Epoch: 2026-08-26T01:10Z
TLE epoch observation values (Epoch: 2026-08-26T01:10:33.786Z)
Latitude
-0.00004°
Longitude
137.38473°
Altitude
766.472 km
Speed
7.465 km/s
True Right ascension
08h 37m 19s
True Declination
0° 00' 00"
Sunlit
Object was in daylight at epoch
Visualization orbit readout
Latitude
Unknown
Longitude
Unknown
Altitude
Unknown
Speed
Unknown
Apparent Right ascension
Unknown
Apparent Declination
Unknown
Sunlit
N/A
Visualization observer readout
Local Sidereal Time
23:19:08
Azimuth
Unknown
Elevation
Unknown
Doppler factor
Unknown
Orbital elements
Apogee altitude
762.381 km
Perigee altitude
736.169 km
Semi-major axis
7,127.412 km
Eccentricity
0.00184
Inclination
74.0359°
RAAN
129.3331°
Arg. of periapsis
158.5993°
True anomaly
201.51622°
Mean anomaly
201.5936°
Eccentric anomaly
201.55489°
Mean motion
3.60699 °/min
Orbital period
99.81 mins
BSTAR
0.00018024
Loading maneuver chart data...
Computing Atmospheric mass density...
Loading historical data...
Loading historical data...
Loading historical data...
Loading historical data...
Loading historical data...
Loading historical data...
Loading historical data...

Documentation

Showing up to 5 results
|